Location: ?????
(31.8092°N, 35.2590°E)
Time: 17:09:15
(UTC+00:00)

Cosmos 1953 - Pass Details

Date: 20 June 2021
Orbit: 537 x 557 km, 82.5° (Epoch: 03 August)

Event Time Altitude Azimuth Distance (km) Brightness Sun altitude
Rises 17:38:39 0° 20° (NNE) 2,743 6.1 -10.0°
Reaches altitude 10° 17:42:19 10° 55° (NE) 1,840 4.8 -10.7°
Maximum altitude 17:43:40 11° 75° (ENE) 1,747 4.5 -10.9°
Enters shadow 17:44:47 10° 91° (E) 1,807 4.5 -11.1°
